Flag for Greece Weather past 2 weeks in Kalamaria, Greece

Now
59 °F

Passing clouds.


Feels Like: 59 °F
Forecast: 49 / 74 °F
Wind: 2 mph from North

Location: Thessaloniki Airport

Current Time: Apr 28, 2015 at 12:32:41 AM

Latest Report: Apr 27, 2015 at 11:50 PM


Visibility: N/A

Pressure: 29.89 "Hg

Humidity: 82%

Dew point: 54 °F

Location of KalamariaLocation

Historic Weather in Kalamaria — Graph

°F

Kalamaria temperature yesterday

Maximum temperature yesterday: 72 °F (at 2:20 PM)
Minimum temperature yesterday: 48 °F (at 4:50 AM)
Average temperature yesterday: 59 °F

Past Weeks' High & Low Weather Summary

 TemperatureHumidityPressure
High79 °F (Apr 18, 2:50 PM)94% (Apr 20, 1:20 AM)30.27 "Hg (Apr 20, 1:20 AM)
Low41 °F (Apr 21, 4:50 AM)18% (Apr 15, 2:50 PM)29.74 "Hg (Apr 18, 5:50 PM)
Average58 °F61%30.06 "Hg
* Reported Apr 12 10:20 PM — Apr 27 10:50 PM, Kalamaria, Weather by CustomWeather, © 2015

Note: Actual official high and low records may vary slightly from our data, if they occured in-between our weather recording intervals... More about our weather records

Advertising

Kalamaria weather history for previous 24 hours

 ConditionsComfort  
Time TempWeatherWind HumidityBarometerVisibility
10:50 PM
Mon, Apr 27
61 °FPassing clouds.5 mph77%29.92 "HgN/A
10:20 PM61 °FPassing clouds.5 mph77%29.92 "HgN/A
9:50 PM61 °FPassing clouds.6 mph77%29.92 "HgN/A
9:20 PM63 °FPassing clouds.6 mph73%29.92 "HgN/A
8:50 PM63 °FPartly sunny.3 mph77%29.92 "HgN/A
8:20 PM63 °FBroken clouds.3 mph77%29.92 "HgN/A
7:50 PM64 °FBroken clouds.5 mph73%29.92 "HgN/A
7:20 PM64 °FMore clouds than sun.6 mph73%29.92 "HgN/A
6:50 PM64 °FMore clouds than sun.6 mph68%29.92 "HgN/A
6:20 PM64 °FMore clouds than sun.8 mph73%29.92 "HgN/A
5:50 PM68 °FBroken clouds.10 mph64%29.92 "HgN/A
5:20 PM66 °FBroken clouds.5 mph73%29.92 "HgN/A
4:50 PM66 °FBroken clouds.8 mph73%29.92 "HgN/A
4:20 PM68 °FPartly sunny.9 mph64%29.95 "HgN/A
3:50 PM70 °FPartly sunny.10 mph60%29.92 "HgN/A
3:20 PM72 °FBroken clouds.8 mph53%29.92 "HgN/A
2:50 PM70 °FBroken clouds.10 mph57%29.95 "HgN/A
2:20 PM72 °FBroken clouds.10 mph57%29.95 "HgN/A
1:50 PM66 °FScattered clouds.9 mph68%29.95 "HgN/A
1:20 PM64 °FScattered clouds.8 mph68%29.95 "Hg6 mi
12:50 PM64 °FScattered clouds.7 mph64%29.98 "Hg6 mi
12:20 PM63 °FScattered clouds.8 mph73%29.98 "Hg6 mi
11:50 AM61 °FPassing clouds.7 mph72%29.98 "Hg6 mi
11:20 AM61 °FPassing clouds.7 mph72%30.01 "Hg6 mi
10:50 AM61 °FPassing clouds.6 mph72%30.01 "Hg6 mi
10:20 AM59 °FPassing clouds.6 mph77%30.01 "Hg5 mi
9:50 AM59 °FScattered clouds.5 mph77%29.98 "Hg4 mi
9:20 AM57 °FSleet. Fog.5 mph88%30.01 "Hg4 mi
8:50 AM57 °FFog.3 mph82%29.98 "Hg4 mi
8:20 AM55 °FFog.2 mph77%29.98 "Hg4 mi
7:50 AM52 °FBroken clouds.2 mph82%29.98 "Hg4 mi
7:20 AM50 °FPassing clouds.3 mph82%29.98 "Hg4 mi
6:50 AM50 °FPassing clouds.3 mph82%29.98 "Hg5 mi
5:50 AM48 °FPassing clouds.7 mph87%29.98 "HgN/A
5:20 AM48 °FPassing clouds.6 mph87%29.98 "HgN/A
4:50 AM48 °FPassing clouds.5 mph87%29.98 "HgN/A
4:20 AM50 °FPassing clouds.5 mph88%29.98 "HgN/A
3:50 AM50 °FPassing clouds.6 mph88%29.98 "HgN/A
3:20 AM50 °FClear.5 mph88%29.98 "Hg10 mi
2:50 AM50 °FClear.6 mph88%29.98 "Hg10 mi
2:20 AM50 °FClear.5 mph94%29.98 "Hg10 mi
1:50 AM52 °FClear.3 mph88%29.98 "Hg10 mi
1:20 AM54 °FClear.3 mph88%29.98 "Hg10 mi
12:50 AM54 °FClear.3 mph88%29.98 "Hg10 mi
12:20 AM55 °FClear.2 mph88%29.98 "Hg10 mi
Weather by CustomWeather, © 2015

See weather overviewHow to use our weather pages